Location: ??????
(38.1303°N, 24.0039°E)
Time: 13:27:45
(UTC+00:00)

Cosmos 1125 Rocket - Pass Details

Date: 20 June 2021
Orbit: 757 x 780 km, 74.0° (Epoch: 03 August)

Event Time Altitude Azimuth Distance (km) Brightness Sun altitude
Rises 01:07:27 0° 341° (NNW) 3,243 7.2 -17.7°
Reaches altitude 10° 01:09:50 10° 342° (NNW) 2,316 6.4 -17.4°
Maximum altitude 01:15:06 89° 66° (ENE) 778 3.5 -16.7°
Drops below altitude 10° 01:20:23 10° 163° (SSE) 2,316 5.7 -16.0°
Enters shadow 01:21:48 - 163° (SSE) 2,869 6.2 -15.8°
